Change the Weather History Date:

Thursday, May 2, 2013

  Actual Average Record
Temperature  
Mean Temperature 36 °F -  
Max Temperature 39 °F 54 °F 86 °F (1992)
Min Temperature 33 °F 34 °F 21 °F (1961)
Degree Days  
Heating Degree Days 29    
Moisture  
Dew Point 27 °F    
Average Humidity 70    
Maximum Humidity 87    
Minimum Humidity 60    
Precipitation  
Precipitation 0.00 in - - ()
Sea Level Pressure  
Sea Level Pressure 30.53 in    
Wind  
Wind Speed 10 mph (NE)    
Max Wind Speed 16 mph    
Max Gust Speed -    
Visibility 10 miles    
Events      
Averages and records for this station are not official NWS values.
T = Trace of Precipitation, MM = Missing Value Source: NWS Daily Summary

Daily Weather History Graph

Daily Weather History Graph

Search for Another Location

Airport or City:

Trip Planner

Search our weather history database for the weather conditions in past years. The results will help you decide how hot, cold, wet, or windy it might be!

Date:

Astronomy

May. 02, 2013 Rise Set
Actual Time 5:51 AM CDT 8:19 PM CDT
Civil Twilight 5:17 AM CDT 8:53 PM CDT
Nautical Twilight 4:35 AM CDT 9:36 PM CDT
Astronomical Twilight 3:46 AM CDT 10:25 PM CDT
Moon 2:06 AM CDT (5/2) 12:43 PM CDT (5/2)
Length of Visible Light 15h 36m
Length of Day
14h 28m
Waning Gibbous, 47% of the Moon is Illuminated
May 2
Waning Gibbous
May 9
New
May 17
First Quarter
May 24
Full
May 31
Last Quarter

Hourly Weather History & Observations

Time (CDT) Temp. Windchill Dew Point Humidity Pressure Visibility Wind Dir Wind Speed Gust Speed Precip Events Conditions
12:13 AM 37.4 °F 30.3 °F 26.6 °F 65% 30.52 in 10.0 mi North 10.4 mph - N/A   Scattered Clouds
12:34 AM 37.4 °F 30.8 °F 26.6 °F 65% 30.53 in 10.0 mi North 9.2 mph - N/A   Mostly Cloudy
12:53 AM 37.4 °F 30.8 °F 26.6 °F 65% 30.54 in 10.0 mi North 9.2 mph - N/A   Mostly Cloudy
1:13 AM 37.4 °F 31.4 °F 28.4 °F 70% 30.55 in 10.0 mi North 8.1 mph - N/A   Overcast
1:33 AM 37.4 °F 32.1 °F 28.4 °F 70% 30.54 in 10.0 mi North 6.9 mph - N/A   Overcast
1:53 AM 37.4 °F 32.1 °F 30.2 °F 75% 30.53 in 10.0 mi NNE 6.9 mph - N/A   Overcast
2:14 AM 37.4 °F 28.5 °F 26.6 °F 65% 30.53 in 10.0 mi NNE 15.0 mph - N/A   Mostly Cloudy
2:33 AM 37.4 °F 28.9 °F 26.6 °F 65% 30.53 in 10.0 mi North 13.8 mph - N/A   Overcast
2:53 AM 35.6 °F 26.6 °F 24.8 °F 65% 30.55 in 10.0 mi North 13.8 mph - N/A   Overcast
3:14 AM 35.6 °F 26.6 °F 24.8 °F 65% 30.55 in 10.0 mi NNE 13.8 mph - N/A   Overcast
3:33 AM 35.6 °F 28.6 °F 24.8 °F 65% 30.55 in 10.0 mi North 9.2 mph - N/A   Mostly Cloudy
3:53 AM 35.6 °F 28.6 °F 24.8 °F 65% 30.55 in 10.0 mi North 9.2 mph - N/A   Scattered Clouds
4:13 AM 35.6 °F 28.6 °F 24.8 °F 65% 30.55 in 10.0 mi North 9.2 mph - N/A   Scattered Clouds
4:33 AM 35.6 °F 27.5 °F 24.8 °F 65% 30.55 in 10.0 mi North 11.5 mph - N/A   Scattered Clouds
4:54 AM 35.6 °F 27.5 °F 24.8 °F 65% 30.55 in 10.0 mi North 11.5 mph - N/A   Scattered Clouds
5:13 AM 35.6 °F 27.5 °F 24.8 °F 65% 30.55 in 10.0 mi North 11.5 mph - N/A   Scattered Clouds
5:33 AM 35.6 °F 28.0 °F 24.8 °F 65% 30.55 in 10.0 mi North 10.4 mph - N/A   Clear
5:54 AM 35.6 °F 26.6 °F 24.8 °F 65% 30.54 in 10.0 mi North 13.8 mph - N/A   Scattered Clouds
6:13 AM 35.6 °F 27.5 °F 24.8 °F 65% 30.55 in 10.0 mi North 11.5 mph - N/A   Scattered Clouds
6:33 AM 35.6 °F 26.6 °F 24.8 °F 65% 30.55 in 10.0 mi North 13.8 mph - N/A   Scattered Clouds
6:54 AM 35.6 °F 27.1 °F 24.8 °F 65% 30.55 in 10.0 mi North 12.7 mph - N/A   Scattered Clouds
7:13 AM 35.6 °F 26.6 °F 24.8 °F 65% 30.56 in 10.0 mi North 13.8 mph - N/A   Clear
7:33 AM 35.6 °F 26.6 °F 24.8 °F 65% 30.56 in 10.0 mi North 13.8 mph - N/A   Clear
7:54 AM 35.6 °F 26.6 °F 24.8 °F 65% 30.57 in 10.0 mi North 13.8 mph - N/A   Mostly Cloudy
8:13 AM 35.6 °F 27.1 °F 24.8 °F 65% 30.57 in 10.0 mi North 12.7 mph - N/A   Scattered Clouds
8:34 AM 35.6 °F 27.5 °F 24.8 °F 65% 30.56 in 10.0 mi North 11.5 mph - N/A   Clear
8:53 AM 35.6 °F 26.2 °F 24.8 °F 65% 30.56 in 10.0 mi North 15.0 mph - N/A   Clear
9:13 AM 35.6 °F 28.0 °F 24.8 °F 65% 30.56 in 10.0 mi North 10.4 mph - N/A   Clear
9:33 AM 37.4 °F 30.3 °F 24.8 °F 60% 30.57 in 10.0 mi North 10.4 mph - N/A   Clear
9:54 AM 37.4 °F 30.3 °F 24.8 °F 60% 30.57 in 10.0 mi North 10.4 mph - N/A   Clear
10:13 AM 37.4 °F 31.4 °F 24.8 °F 60% 30.57 in 10.0 mi North 8.1 mph - N/A   Scattered Clouds
10:33 AM 37.4 °F 31.4 °F 24.8 °F 60% 30.57 in 10.0 mi NNE 8.1 mph - N/A   Scattered Clouds
10:54 AM 37.4 °F 31.4 °F 26.6 °F 65% 30.57 in 10.0 mi North 8.1 mph - N/A   Scattered Clouds
11:13 AM 37.4 °F 32.8 °F 26.6 °F 65% 30.58 in 10.0 mi NE 5.8 mph - N/A   Scattered Clouds
11:34 AM 37.4 °F 34.9 °F 24.8 °F 60% 30.58 in 10.0 mi East 3.5 mph - N/A   Overcast
11:53 AM 37.4 °F 33.8 °F 26.6 °F 65% 30.58 in 10.0 mi East 4.6 mph - N/A   Overcast
12:13 PM 37.4 °F 32.8 °F 26.6 °F 65% 30.57 in 10.0 mi East 5.8 mph - N/A   Overcast
12:34 PM 39.2 °F 35.0 °F 26.6 °F 61% 30.55 in 10.0 mi East 5.8 mph - N/A   Overcast
12:53 PM 39.2 °F 33.6 °F 26.6 °F 61% 30.55 in 10.0 mi East 8.1 mph - N/A   Overcast
1:14 PM 39.2 °F 34.2 °F 26.6 °F 61% 30.54 in 10.0 mi East 6.9 mph - N/A   Mostly Cloudy
1:33 PM 37.4 °F 32.8 °F 24.8 °F 60% 30.54 in 10.0 mi East 5.8 mph - N/A   Scattered Clouds
1:53 PM 37.4 °F 32.1 °F 26.6 °F 65% 30.54 in 10.0 mi East 6.9 mph - N/A   Clear
2:14 PM 37.4 °F 32.8 °F 28.4 °F 70% 30.53 in 10.0 mi East 5.8 mph - N/A   Clear
2:33 PM 39.2 °F 34.2 °F 28.4 °F 65% 30.53 in 10.0 mi East 6.9 mph - N/A   Clear
2:53 PM 37.4 °F 32.8 °F 26.6 °F 65% 30.53 in 10.0 mi East 5.8 mph - N/A   Clear
3:14 PM 37.4 °F 32.1 °F 26.6 °F 65% 30.52 in 10.0 mi East 6.9 mph - N/A   Clear
3:33 PM 37.4 °F 31.4 °F 26.6 °F 65% 30.52 in 10.0 mi East 8.1 mph - N/A   Clear
3:54 PM 39.2 °F 33.0 °F 26.6 °F 61% 30.51 in 10.0 mi East 9.2 mph - N/A   Clear
4:13 PM 39.2 °F 34.2 °F 26.6 °F 61% 30.51 in 10.0 mi East 6.9 mph - N/A   Clear
4:33 PM 37.4 °F 31.4 °F 26.6 °F 65% 30.51 in 10.0 mi ENE 8.1 mph - N/A   Clear
4:54 PM 37.4 °F 32.1 °F 26.6 °F 65% 30.51 in 10.0 mi NE 6.9 mph - N/A   Clear
5:13 PM 37.4 °F 30.3 °F 26.6 °F 65% 30.50 in 10.0 mi NE 10.4 mph - N/A   Clear
5:34 PM 35.6 °F 27.1 °F 26.6 °F 70% 30.50 in 10.0 mi NE 12.7 mph - N/A   Clear
5:53 PM 35.6 °F 28.0 °F 26.6 °F 70% 30.51 in 10.0 mi NE 10.4 mph - N/A   Clear
6:13 PM 35.6 °F 27.1 °F 28.4 °F 75% 30.50 in 10.0 mi NNE 12.7 mph - N/A   Clear
6:34 PM 35.6 °F 26.6 °F 28.4 °F 75% 30.49 in 10.0 mi NNE 13.8 mph - N/A   Clear
6:53 PM 35.6 °F 27.1 °F 28.4 °F 75% 30.49 in 10.0 mi NE 12.7 mph - N/A   Clear
7:14 PM 33.8 °F 25.3 °F 28.4 °F 81% 30.49 in 10.0 mi NE 11.5 mph - N/A   Clear
7:33 PM 33.8 °F 24.3 °F 30.2 °F 87% 30.49 in 10.0 mi NE 13.8 mph - N/A   Clear
7:54 PM 33.8 °F 24.3 °F 30.2 °F 87% 30.50 in 10.0 mi NE 13.8 mph - N/A   Clear
8:13 PM 33.8 °F 24.3 °F 30.2 °F 87% 30.50 in 10.0 mi NE 13.8 mph - N/A   Clear
8:34 PM 33.8 °F 24.3 °F 28.4 °F 81% 30.50 in 10.0 mi NE 13.8 mph - N/A   Scattered Clouds
8:53 PM 33.8 °F 23.9 °F 28.4 °F 81% 30.50 in 10.0 mi NE 15.0 mph - N/A   Scattered Clouds
9:14 PM 33.8 °F 23.9 °F 30.2 °F 87% 30.50 in 10.0 mi NE 15.0 mph - N/A   Mostly Cloudy
9:33 PM 33.8 °F 23.5 °F 30.2 °F 87% 30.51 in 10.0 mi NE 16.1 mph - N/A   Overcast
9:54 PM 33.8 °F 24.8 °F 30.2 °F 87% 30.50 in 10.0 mi NE 12.7 mph - N/A   Mostly Cloudy
10:13 PM 33.8 °F 24.8 °F 30.2 °F 87% 30.51 in 10.0 mi NE 12.7 mph - N/A   Scattered Clouds
10:33 PM 33.8 °F 25.3 °F 30.2 °F 87% 30.50 in 10.0 mi NE 11.5 mph - N/A   Clear
10:53 PM 33.8 °F 24.8 °F 30.2 °F 87% 30.51 in 10.0 mi NE 12.7 mph - N/A   Mostly Cloudy
11:14 PM 33.8 °F 25.8 °F 30.2 °F 87% 30.50 in 10.0 mi NE 10.4 mph - N/A   Overcast
11:33 PM 33.8 °F 25.8 °F 30.2 °F 87% 30.49 in 10.0 mi NE 10.4 mph - N/A   Overcast
11:53 PM 33.8 °F 25.8 °F 30.2 °F 87% 30.49 in 10.0 mi NE 10.4 mph - N/A   Overcast